Regional Weather Roundup
Issued by NWS Little Rock, AR

Home | Current Version | Previous Version | Text Only | Print | Product List | Glossary Off
Versions: 1 2 3 4 5 6 7 8 9 10 11 12 13 14 15 16 17 18 19 20 21 22 23 24 25 26 27 28 29 30 31 32 33 34 35 36 37 38 39 40 41 42 43 44 45 46 47 48 49 50

000
ASUS44 KLZK 280605
RWRLZK

WEATHER ROUNDUP FOR ARKANSAS
NATIONAL WEATHER SERVICE LITTLE ROCK AR
100 AM CDT SAT MAY 28 2016

NOTE: "FAIR" INDICATES FEW OR NO CLOUDS BELOW 12,000 FEET WITH NO
SIGNIFICANT WEATHER AND/OR OBSTRUCTIONS TO VISIBILITY.

ARZ001-003-010-029-280700-
NORTHWEST ARKANSAS

CITY           SKY/WX    TMP DP  RH WIND       PRES   REMARKS
FAYETTEVILLE   CLOUDY    65  62  90 SE6       29.83F
6HR MIN TEMP:  64; 6HR MAX TEMP:  71;

FORT SMITH     PTCLDY    66  61  84 NE5       29.82R
6HR MIN TEMP:  66; 6HR MAX TEMP:  75;

HARRISON       PTCLDY    65  61  87 S12       29.84F
6HR MIN TEMP:  65; 6HR MAX TEMP:  72;

BENTONVILLE    CLOUDY    64  57  77 S6        29.83S
6HR MIN TEMP:  64; 6HR MAX TEMP:  73;

ROGERS           N/A     65  61  87 S9        29.83F
6HR MIN TEMP:  65; 6HR MAX TEMP:  73;

SILOAM SPGS    PTCLDY    64  55  72 S9        29.82F
6HR MIN TEMP:  64; 6HR MAX TEMP:  72;

HIGHFILL       CLOUDY    65  62  90 S10       29.82S
6HR MIN TEMP:  65; 6HR MAX TEMP:  73;

$$

ARZ004-005-016-280700-
NORTH CENTRAL ARKANSAS

CITY           SKY/WX    TMP DP  RH WIND       PRES   REMARKS
BATESVILLE     CLOUDY    70  64  83 SW6       29.88F
6HR MIN TEMP:  70; 6HR MAX TEMP:  73;

FLIPPIN        MOCLDY   N/A N/A N/A SE5       29.81F
MTN HOME       MOCLDY    67  63  87 SE5       29.84F
6HR MIN TEMP:  67; 6HR MAX TEMP:  75;

$$

ARZ040-041-280700-
WEST CENTRAL ARKANSAS

CITY           SKY/WX    TMP DP  RH WIND       PRES   REMARKS
MENA           CLOUDY    66  64  94 CALM      29.89S
MOUNT IDA      CLOUDY    65  63  93 CALM      29.85F
6HR MIN TEMP:  65; 6HR MAX TEMP:  70;

$$

ARZ009-017-025-026-028-280700-
NORTHEAST ARKANSAS

CITY           SKY/WX    TMP DP  RH WIND       PRES   REMARKS
CORNING          N/A     68  66  94 S12       29.88F
JONESBORO      CLOUDY    69  64  84 S6        29.89R
6HR MIN TEMP:  69; 6HR MAX TEMP:  74; 6HR PCP:  0.04;

NEWPORT        MOCLDY    69  69 100 S6        29.90R
6HR MIN TEMP:  69; 6HR MAX TEMP:  72; 6HR PCP: TRACE;

WALNUT RIDGE   CLOUDY    68  63  83 S13       29.87F
6HR MIN TEMP:  68; 6HR MAX TEMP:  73; 6HR PCP:  0.01;

BLYTHEVILLE    CLOUDY    70  66  87 S3        29.91S
6HR MIN TEMP:  70; 6HR MAX TEMP:  77; 6HR PCP:  0.25;

$$

ARZ022-023-033-042-044-280700-
CENTRAL ARKANSAS

CITY           SKY/WX    TMP DP  RH WIND       PRES   REMARKS
LITTLE ROCK    CLOUDY    69  66  90 CALM      29.88S
6HR MIN TEMP:  69; 6HR MAX TEMP:  74;

N LITTLE ROCK    N/A     68  65  88 SW3       29.86F
6HR MIN TEMP:  68; 6HR MAX TEMP:  73;

JACKSONVILLE   CLOUDY    69  66  88 S2        29.87F
6HR MIN TEMP:  69; 6HR MAX TEMP:  74;

SEARCY         MOCLDY    70  68  94 S5        29.89F
6HR MIN TEMP:  70; 6HR MAX TEMP:  72; 6HR PCP: TRACE;

HOT SPRINGS    CLOUDY    66  63  90 CALM      29.88F
6HR MIN TEMP:  66; 6HR MAX TEMP:  71;

RUSSELLVILLE   CLOUDY    68  64  87 CALM      29.86F
6HR MIN TEMP:  68; 6HR MAX TEMP:  74;

CLINTON        MOCLDY    70  68  94 CALM      29.88F
$$

ARZ036-280700-
EAST ARKANSAS

CITY           SKY/WX    TMP DP  RH WIND       PRES   REMARKS
WEST MEMPHIS   CLOUDY    66  66 100 N3        29.89R
6HR MIN TEMP:  66; 6HR MAX TEMP:  70; 6HR PCP:  0.09;

$$

ARZ050-053-066-070-073-280700-
SOUTHWEST ARKANSAS

CITY           SKY/WX    TMP DP  RH WIND       PRES   REMARKS
ARKADELPHIA    FAIR      64  64 100 CALM      29.89S
6HR MIN TEMP:  64; 6HR MAX TEMP:  70;

CAMDEN         CLOUDY    64  61  88 S3        29.88S
TEXARKANA      CLOUDY    64  63  96 CALM      29.89F
6HR MIN TEMP:  64; 6HR MAX TEMP:  68;

EL DORADO      MOCLDY    64  64 100 W3        29.90R
6HR MIN TEMP:  64; 6HR MAX TEMP:  68; 6HR PCP:  0.01;

DE QUEEN       CLOUDY    65  64  97 SE7       29.85F
6HR MIN TEMP:  64; 6HR MAX TEMP:  70;

$$

ARZ056-057-069-280700-
SOUTHEAST ARKANSAS

CITY           SKY/WX    TMP DP  RH WIND       PRES   REMARKS
PINE BLUFF     LGT RAIN  69  65  86 CALM      29.89F
6HR MIN TEMP:  68; 6HR MAX TEMP:  74; 6HR PCP: TRACE;

STUTTGART      CLOUDY    72  63  73 SW7       29.89F
6HR MIN TEMP:  70; 6HR MAX TEMP:  73;

MONTICELLO     CLOUDY    69  66  90 W5        29.88R
6HR MIN TEMP:  68; 6HR MAX TEMP:  72; 6HR PCP:  0.03;


$$





USA.gov is the U.S. government's official web portal to all federal, state and local government web resources and services.